Regional Weather Roundup
Issued by NWS

Home | Current Version | Previous Version | Text Only | Print | Product List | Glossary On
Versions: 1 2 3 4 5 6 7 8 9 10 11 12 13 14 15 16 17 18 19 20 21 22 23 24 25 26 27 28 29 30 31 32 33 34 35 36 37 38 39 40 41 42 43 44 45 46 47 48 49 50
000
ASUS43 KOAX 012210
RWRNE

WEATHER ROUNDUP FOR NEBRASKA
NATIONAL WEATHER SERVICE OMAHA NE
500 PM CDT MON SEP 01 2014

NOTES: SATELLITE DATA IS BEING USED TO AUGMENT CLOUD COVER ABOVE
       12000 FEET.
       "FAIR" INDICATES FEW OR NO CLOUDS BELOW 12,000 FEET WITH NO
       SIGNIFICANT WEATHER AND/OR OBSTRUCTIONS TO VISIBILITY.

  * THESE STATIONS DO NOT REPORT WEATHER SUCH AS RAIN...SNOW OR FOG.

NEZ001>004-019>022-054>056-012300-
NEBRASKA PANHANDLE

CITY           SKY/WX    TMP DP  RH WIND       PRES   REMARKS
SCOTTSBLUFF    SUNNY     82  40  22 NW18G29   29.90S
ALLIANCE       MOSUNNY   78  37  22 W20       29.89F
CHADRON        LGT RAIN  57  51  80 NW14G31   29.95R
KIMBALL        MOSUNNY   76  32  20 W15       29.95F
SIDNEY         PTSUNNY   79  46  31 SW12      29.95F
$$

NEZ057>060-069>072-079>082-012300-
SOUTHWEST NEBRASKA

CITY           SKY/WX    TMP DP  RH WIND       PRES   REMARKS
NORTH PLATTE   SUNNY     75  53  46 S8        29.91F
IMPERIAL       SUNNY     78  49  35 SW9       29.94F
LEXINGTON      PTSUNNY   71  58  64 CALM      29.92F
MCCOOK         MOSUNNY   78  52  40 VRB5      29.93F
OGALLALA       MOSUNNY   75  51  42 S12G18    29.92F
$$

NEZ005>010-023>029-035>040-094-012300-
NORTH CENTRAL NEBRASKA

CITY           SKY/WX    TMP DP  RH WIND       PRES   REMARKS
VALENTINE      CLOUDY    72  49  44 NW18G25   29.89R
AINSWORTH      SUNNY     76  46  35 CALM      29.87F
BROKEN BOW     MOSUNNY   79  51  37 W7        29.89F
O`NEILL        SUNNY     78  51  39 W3        29.87F
ORD            MOSUNNY   76  54  46 S7        29.87F
THEDFORD       MOSUNNY   80  46  30 SW8       29.89F
$$

NEZ041-046>049-061>064-073>077-083>087-012300-
SOUTH CENTRAL NEBRASKA

CITY           SKY/WX    TMP DP  RH WIND       PRES   REMARKS
GRAND ISLAND   CLOUDY    74  60  61 W6        29.92S
AURORA         CLOUDY    71  62  72 S7        29.89F
HASTINGS       CLOUDY    71  60  68 CALM      29.91F
HEBRON         MOSUNNY   77  56  47 NW6       29.91S
HOLDREGE       PTSUNNY   70  59  67 CALM      29.92F
KEARNEY *      CLOUDY    68  59  73 SW3       29.92F
YORK           CLOUDY    72 N/A N/A CALM      29.91R
$$

NEZ011>018-030>034-042>045-012300-
NORTHEAST NEBRASKA

CITY           SKY/WX    TMP DP  RH WIND       PRES   REMARKS
NORFOLK        MOSUNNY   77  55  46 S6        29.87S
ALBION         MOSUNNY   78  56  46 SW9       29.88F
BLAIR          PTSUNNY   76  59  55 NW5       29.88S
FREMONT        PTSUNNY   78  58  49 CALM      29.88S
TEKAMAH        MOSUNNY   78  62  57 W3        29.86S
WAYNE          MOSUNNY   79  60  52 W6        29.87S
$$

NEZ050>053-065>068-078-088>093-012300-
SOUTHEAST NEBRASKA

CITY           SKY/WX    TMP DP  RH WIND       PRES   REMARKS
LINCOLN        CLOUDY    77  61  57 SW8       29.89S
OMAHA EPPLEY   PTSUNNY   77  60  55 N7        29.86F
BEATRICE       MOSUNNY   76  62  61 NW3       29.89S
FALLS CITY     MOSUNNY   81  62  52 N5        29.87S
NEBRASKA CITY  MOSUNNY   76  60  55 CALM      29.87F
PLATTSMOUTH    PTSUNNY   76  61  58 CALM      29.87F
$$

NEZ044-045-051>053-067-012300-
OMAHA AREA

CITY           SKY/WX    TMP DP  RH WIND       PRES   REMARKS
OMAHA EPPLEY   PTSUNNY   77  60  55 N7        29.86F
BLAIR          PTSUNNY   76  59  55 NW5       29.88S
FREMONT        PTSUNNY   78  58  49 CALM      29.88S
MILLARD        PTSUNNY   78  60  54 NW5       29.86S
OFFUTT AFB     PTSUNNY   76  64  65 E3        29.86S
PLATTSMOUTH    PTSUNNY   76  61  58 CALM      29.87F
WAHOO          FAIR      75  62  62 N5        29.87F
$$


USA.gov is the U.S. government's official web portal to all federal, state and local government web resources and services.